When you browse on this site, cookies collect data to enhance your experience and personalize the content and advertising you see.
Visit our Privacy Policy to learn more. By continuing to use the site, you agree to this use of cookies and data.
  • In United Kingdom
  • List of Countries
  • For 7 days
  • Water Temperature
  • Weather Map
  • Weather Widgets
  • user-avatar
    Login

    Hourly Weather Killington

    Today, 23 September, Monday

    Time Temperature Precipitation Wind Pressure Humidity
    00:00 +18°C° 0 mm 2 mps 705 mmHg 92%
    01:00 +18°C° 0 mm 2 mps 704 mmHg 92%
    02:00 +18°C° 0 mm 2 mps 704 mmHg 93%
    03:00 +18°C° 0 mm 2 mps 703 mmHg 94%
    04:00 +18°C° 0 mm 2 mps 703 mmHg 95%
    05:00 +18°C° 0 mm 2 mps 703 mmHg 94%
    06:00 +19°C° 0 mm 2 mps 703 mmHg 92%
    07:00 +19°C° 0 mm 2 mps 703 mmHg 91%
    08:00 +20°C° 0 mm 3 mps 702 mmHg 82%
    09:00 +22°C° 0 mm 4 mps 702 mmHg 73%
    10:00 +23°C° 0 mm 5 mps 702 mmHg 64%
    11:00 +23°C° 0 mm 5 mps 702 mmHg 64%
    12:00 +25°C° 0 mm 5 mps 701 mmHg 64%
    13:00 +25°C° 0 mm 5 mps 701 mmHg 64%
    14:00 +23°C° 0.2 mm 5 mps 701 mmHg 70%
    15:00 +22°C° 0.2 mm 4 mps 700 mmHg 76%
    16:00 +21°C° 0.2 mm 4 mps 700 mmHg 82%
    17:00 +20°C° 0.5 mm 4 mps 700 mmHg 86%
    18:00 +19°C° 0.5 mm 4 mps 700 mmHg 90%
    19:00 +18°C° 0.5 mm 4 mps 700 mmHg 93%
    20:00 +17°C° 0.2 mm 3 mps 700 mmHg 93%
    21:00 +17°C° 0.2 mm 2 mps 700 mmHg 93%
    22:00 +16°C° 0.2 mm 2 mps 700 mmHg 93%
    23:00 +15°C° 0 mm 2 mps 699 mmHg 94%

    Tomorrow, 24 September, Tuesday

    Time Temperature Precipitation Wind Pressure Humidity
    00:00 +14°C° 0 mm 2 mps 699 mmHg 96%
    01:00 +14°C° 0 mm 1 mps 699 mmHg 97%
    02:00 +13°C° 0 mm 1 mps 699 mmHg 97%
    03:00 +13°C° 0 mm 2 mps 699 mmHg 98%
    04:00 +12°C° 0 mm 2 mps 699 mmHg 98%
    05:00 +12°C° 0 mm 2 mps 699 mmHg 96%
    06:00 +12°C° 0 mm 2 mps 699 mmHg 94%
    07:00 +11°C° 0 mm 3 mps 700 mmHg 92%
    08:00 +12°C° 0.1 mm 3 mps 700 mmHg 89%
    09:00 +13°C° 0.1 mm 3 mps 700 mmHg 85%
    10:00 +13°C° 0.1 mm 3 mps 700 mmHg 81%
    11:00 +13°C° 0.2 mm 3 mps 700 mmHg 79%
    12:00 +14°C° 0.2 mm 3 mps 700 mmHg 77%
    13:00 +14°C° 0.2 mm 4 mps 700 mmHg 76%
    14:00 +14°C° 0.2 mm 4 mps 700 mmHg 76%
    15:00 +14°C° 0.2 mm 3 mps 700 mmHg 76%
    16:00 +13°C° 0.2 mm 3 mps 700 mmHg 76%
    17:00 +12°C° 0 mm 3 mps 701 mmHg 82%
    18:00 +10°C° 0 mm 2 mps 701 mmHg 87%
    19:00 +10°C° 0 mm 1 mps 701 mmHg 93%
    20:00 +9°C° 0 mm 1 mps 701 mmHg 94%
    21:00 +8°C° 0 mm 1 mps 701 mmHg 95%
    22:00 +8°C° 0 mm 1 mps 701 mmHg 96%
    23:00 +8°C° 0 mm 1 mps 701 mmHg 96%

    Day after tomorrow, 25 September, Wednesday

    Time Temperature Precipitation Wind Pressure Humidity
    00:00 +8°C° 0 mm 1 mps 700 mmHg 96%
    01:00 +8°C° 0 mm 1 mps 700 mmHg 97%
    02:00 +8°C° 0 mm 1 mps 700 mmHg 97%
    03:00 +7°C° 0 mm 1 mps 700 mmHg 97%
    04:00 +7°C° 0 mm 1 mps 701 mmHg 98%
    05:00 +8°C° 0 mm 1 mps 701 mmHg 97%
    06:00 +8°C° 0 mm 1 mps 701 mmHg 96%
    07:00 +9°C° 0 mm 1 mps 702 mmHg 94%
    08:00 +10°C° 0 mm 1 mps 702 mmHg 88%
    09:00 +12°C° 0 mm 1 mps 702 mmHg 82%
    10:00 +14°C° 0 mm 1 mps 703 mmHg 76%
    11:00 +14°C° 0 mm 1 mps 702 mmHg 73%
    12:00 +15°C° 0 mm 1 mps 702 mmHg 69%
    13:00 +16°C° 0 mm 1 mps 702 mmHg 65%
    14:00 +16°C° 0 mm 1 mps 702 mmHg 64%
    15:00 +16°C° 0 mm 1 mps 701 mmHg 63%
    16:00 +16°C° 0 mm 1 mps 701 mmHg 62%
    17:00 +14°C° 0 mm 1 mps 701 mmHg 71%
    18:00 +12°C° 0 mm 1 mps 701 mmHg 80%
    19:00 +10°C° 0 mm 1 mps 701 mmHg 88%
    20:00 +10°C° 0 mm 1 mps 701 mmHg 89%
    21:00 +10°C° 0 mm 1 mps 701 mmHg 89%
    22:00 +10°C° 0 mm 1 mps 701 mmHg 89%
    23:00 +10°C° 0 mm 1 mps 701 mmHg 90%

    26 September, Thursday

    Time Temperature Precipitation Wind Pressure Humidity
    00:00 +10°C° 0 mm 1 mps 701 mmHg 92%
    01:00 +10°C° 0 mm 1 mps 701 mmHg 93%
    02:00 +10°C° 0 mm 1 mps 701 mmHg 92%
    03:00 +10°C° 0 mm 1 mps 700 mmHg 92%
    04:00 +9°C° 0 mm 2 mps 700 mmHg 91%
    05:00 +11°C° 0 mm 1 mps 700 mmHg 89%
    06:00 +12°C° 0 mm 1 mps 700 mmHg 87%
    07:00 +12°C° 0 mm 1 mps 700 mmHg 85%
    08:00 +14°C° 0 mm 2 mps 700 mmHg 78%
    09:00 +16°C° 0 mm 2 mps 700 mmHg 71%
    10:00 +18°C° 0 mm 2 mps 700 mmHg 64%
    11:00 +17°C° 2 mm 2 mps 700 mmHg 73%
    12:00 +14°C° 2 mm 3 mps 699 mmHg 82%
    13:00 +13°C° 2 mm 3 mps 699 mmHg 90%
    14:00 +12°C° 3.8 mm 3 mps 699 mmHg 92%
    15:00 +11°C° 3.8 mm 3 mps 699 mmHg 94%
    16:00 +11°C° 3.8 mm 3 mps 699 mmHg 96%
    17:00 +10°C° 0.2 mm 3 mps 700 mmHg 96%
    18:00 +10°C° 0.2 mm 3 mps 700 mmHg 97%
    19:00 +9°C° 0.2 mm 3 mps 701 mmHg 97%
    20:00 +9°C° 0 mm 3 mps 701 mmHg 96%
    21:00 +8°C° 0 mm 3 mps 702 mmHg 95%
    22:00 +8°C° 0 mm 2 mps 702 mmHg 94%
    23:00 +7°C° 0 mm 2 mps 702 mmHg 95%

    27 September, Friday

    Time Temperature Precipitation Wind Pressure Humidity
    00:00 +7°C° 0 mm 2 mps 702 mmHg 96%
    01:00 +7°C° 0 mm 1 mps 703 mmHg 97%
    02:00 +7°C° 0 mm 1 mps 703 mmHg 97%
    03:00 +6°C° 0 mm 1 mps 704 mmHg 97%
    04:00 +5°C° 0 mm 2 mps 705 mmHg 97%
    05:00 +6°C° 0 mm 1 mps 706 mmHg 96%
    06:00 +7°C° 0 mm 1 mps 706 mmHg 95%
    07:00 +7°C° 0 mm 1 mps 707 mmHg 95%
    08:00 +10°C° 0 mm 1 mps 707 mmHg 83%
    09:00 +12°C° 0 mm 2 mps 708 mmHg 71%
    10:00 +14°C° 0 mm 2 mps 709 mmHg 59%
    11:00 +16°C° 0 mm 2 mps 709 mmHg 54%
    12:00 +18°C° 0 mm 1 mps 709 mmHg 48%
    13:00 +19°C° 0 mm 1 mps 709 mmHg 42%
    14:00 +19°C° 0 mm 1 mps 709 mmHg 45%
    15:00 +18°C° 0 mm 1 mps 709 mmHg 48%
    16:00 +18°C° 0 mm 1 mps 708 mmHg 50%
    17:00 +15°C° 0 mm 1 mps 708 mmHg 57%
    18:00 +12°C° 0 mm 1 mps 708 mmHg 64%
    19:00 +10°C° 0 mm 1 mps 709 mmHg 71%
    20:00 +10°C° 0 mm 1 mps 708 mmHg 69%
    21:00 +10°C° 0 mm 1 mps 708 mmHg 68%
    22:00 +10°C° 0 mm 1 mps 708 mmHg 67%
    23:00 +10°C° 0 mm 1 mps 708 mmHg 68%

    28 September, Saturday

    Time Temperature Precipitation Wind Pressure Humidity
    00:00 +9°C° 0 mm 1 mps 707 mmHg 69%
    01:00 +9°C° 0 mm 1 mps 707 mmHg 70%
    02:00 +9°C° 0 mm 1 mps 707 mmHg 70%
    03:00 +9°C° 0 mm 1 mps 707 mmHg 71%
    04:00 +9°C° 0 mm 1 mps 707 mmHg 72%
    05:00 +10°C° 0 mm 1 mps 707 mmHg 72%
    06:00 +11°C° 0 mm 1 mps 707 mmHg 71%
    07:00 +10°C° 0 mm 2 mps 707 mmHg 71%
    08:00 +14°C° 0 mm 2 mps 707 mmHg 68%
    09:00 +16°C° 0 mm 2 mps 707 mmHg 65%
    10:00 +18°C° 0 mm 2 mps 708 mmHg 62%
    11:00 +20°C° 0 mm 2 mps 708 mmHg 61%
    12:00 +22°C° 0 mm 3 mps 708 mmHg 61%
    13:00 +24°C° 0 mm 3 mps 707 mmHg 61%
    14:00 +24°C° 0 mm 3 mps 707 mmHg 65%
    15:00 +22°C° 0 mm 3 mps 707 mmHg 69%
    16:00 +22°C° 0 mm 3 mps 707 mmHg 73%
    17:00 +21°C° 0.2 mm 2 mps 707 mmHg 80%
    18:00 +19°C° 0.2 mm 2 mps 707 mmHg 88%
    19:00 +19°C° 0.2 mm 1 mps 708 mmHg 95%
    20:00 +18°C° 0.5 mm 1 mps 708 mmHg 96%
    21:00 +17°C° 0.5 mm 2 mps 708 mmHg 97%
    22:00 +17°C° 0.5 mm 2 mps 709 mmHg 98%
    23:00 +16°C° 0.1 mm 2 mps 709 mmHg 97%
    Show more